Regional Weather Roundup
Issued by NWS State College, PA

Home | Current Version | Previous Version | Text Only | Print | Product List | Glossary Off
Versions: 1 2 3 4 5 6 7 8 9 10 11 12 13 14 15 16 17 18 19 20 21 22 23 24 25 26 27 28 29 30 31 32 33 34 35 36 37 38 39 40 41 42 43 44 45 46 47 48 49 50

000
ASUS41 KCTP 240310
RWRCTP

REGIONAL WEATHER ROUNDUP
NATIONAL WEATHER SERVICE STATE COLLEGE PA
1000 PM EST TUE JAN 23 2018

Note: "fair" indicates few or no clouds below 12,000 feet with no
significant weather and/or obstructions to visibility.

* = STATION THAT DOES NOT REPORT PRECIPITATION /E.G. RAIN...SNOW...ETC/
    THUNDER OR FOG.

PAZ002>004-007>009-013>016-020>023-029>032-240400-
WESTERN PENNSYLVANIA

CITY           SKY/WX    TMP DP  RH WIND       PRES   REMARKS
ERIE           LGT SNOW  31  28  89 W8        29.87R VSB 1
MEADVILLE      CLOUDY    30  29  96 W18G28    29.85R
FRANKLIN*      MIX PCPN  31  28  89 W15G22    29.85R FOG
NEW CASTLE     CLOUDY    34  30  85 W14G23    29.91R
BEAVER COUNTY  NOT AVBL
BUTLER*        CLOUDY    35  31  85 W12G21    29.88R
PITTSBURGH INT CLOUDY    38  30  73 W20G32    29.89R
PITTSBURGH     CLOUDY    36  29  75 W22G32    29.89R
INDIANA*       CLOUDY    36  34  93 W14G26    29.88R FOG
LATROBE        CLOUDY    37  32  81 W17G29    29.89R
WASHINGTON CO* CLOUDY    38  30  73 W20G29    29.95R
$$

PAZ004>006-010>012-017>019-024>028-033>037-041-042-045-046-049>053-240400-
CENTRAL PENNSYLVANIA

CITY           SKY/WX    TMP DP  RH WIND       PRES   REMARKS
BRADFORD       CLOUDY    31  27  85 W16G26    29.73R
DUBOIS           N/A    N/A N/A N/A MISG      29.78R
CLEARFIELD     MIX PCPN  36  32  85 W14G21    29.78R
JOHNSTOWN      CLOUDY    34  29  82 W24G35    29.78S
ALTOONA        CLOUDY    39  30  70 W21G30    29.81R
STATE COLLEGE  CLOUDY    37  30  75 W17G29    29.79R
WILLIAMSPORT   CLOUDY    41  31  67 W12       29.74R
SELINSGROVE    CLOUDY    42  29  59 VRB7      29.79R
FT INDIANTOWN  CLOUDY    44  30  58 W14G21    29.78R
CAPITAL CITY   CLOUDY    46  30  53 W13G21    29.80R
HARRISBURG     CLOUDY    44  30  57 W12       29.80R
YORK           MOCLDY    44  30  57 W8G18     29.81R
$$

PAZ038>040-043-044-047-048-054-055-060>062-067>071-240400-
EASTERN PENNSYLVANIA

CITY           SKY/WX    TMP DP  RH WIND       PRES   REMARKS
SCRANTON       CLOUDY    40  29  64 W13       29.71R
MOUNT POCONO   CLOUDY    35  27  72 W25G41    29.65S
ALLENTOWN      CLOUDY    43  29  57 W8        29.76R
QUAKERTOWN*    NOT AVBL
READING        CLOUDY    43  32  65 W10       29.77R
LANCASTER      CLOUDY    44  31  60 W14       29.80R
COATESVILLE    FAIR      43  30  61 W18       29.79R
POTTSTOWN      FAIR      41  29  62 MISG      29.79R
BLUE BELL      FAIR      43  32  65 NW5       29.78R
DOYLESTOWN     FAIR      43  28  55 NW14G23   29.75R
WILLOW GROVE   NOT AVBL
NORTH PHILA    FAIR      42  31  64 W7        29.78R
PHILADELPHIA   FAIR      47  28  47 W9        29.79R
$$



USA.gov is the U.S. government's official web portal to all federal, state and local government web resources and services.